Location: �chenoz-la-M�line
(47.6009°N, 6.1354°E)
Time: 13:01:33
(UTC+00:00)

Cosmos 1814 Rocket - Pass Details

Date: 27 January 2021
Orbit: 744 x 787 km, 74.1° (Epoch: 02 March)

Event Time Altitude Azimuth Distance (km) Brightness Sun altitude
Exits shadow 05:03:49 43° 248° (WSW) 1,046 4.3 -20.9°
Maximum altitude 05:05:08 55° 297° (WNW) 895 4.0 -20.6°
Drops below altitude 10° 05:10:10 10° 15° (NNE) 2,273 6.5 -19.8°
Sets 05:12:36 0° 20° (NNE) 3,204 7.4 -19.4°
